Location: D�derode
(51.8092°N, 10.1065°E)
Time: 06:36:58
(UTC+00:00)

Cosmos 2219 Rocket - Pass Details

Date: 01 December 2020
Orbit: 829 x 845 km, 71.0° (Epoch: 23 January)

Event Time Altitude Azimuth Distance (km) Brightness Sun altitude
Rises 17:26:14 0° 275° (W) 3,391 6.7 -19.7°
Reaches altitude 10° 17:29:44 10° 297° (WNW) 2,456 5.3 -20.2°
Maximum altitude 17:33:05 16° 334° (NNW) 2,071 4.4 -20.7°
Drops below altitude 10° 17:36:27 10° 11° (NNE) 2,455 4.4 -21.3°
Enters shadow 17:36:45 - 14° (NNE) 2,522 4.4 -21.3°
